Regional Weather Roundup
Issued by NWS

Home | Current Version | Previous Version | Graphics & Text | Print | Product List | Glossary On
Versions: 1 2 3 4 5 6 7 8 9 10 11 12 13 14 15 16 17 18 19 20 21 22 23 24 25 26 27 28 29 30 31 32 33 34 35 36 37 38 39 40 41 42 43 44 45 46 47 48 49 50
000
ASUS43 KOAX 281610
RWRNE

WEATHER ROUNDUP FOR NEBRASKA
NATIONAL WEATHER SERVICE OMAHA NE
1100 AM CDT SUN AUG 28 2016

NOTES: SATELLITE DATA IS BEING USED TO AUGMENT CLOUD COVER ABOVE
       12000 FEET.
       "FAIR" INDICATES FEW OR NO CLOUDS BELOW 12,000 FEET WITH NO
       SIGNIFICANT WEATHER AND/OR OBSTRUCTIONS TO VISIBILITY.

  * THESE STATIONS DO NOT REPORT WEATHER SUCH AS RAIN...SNOW OR FOG.

NEZ001>004-019>022-054>056-281700-
NEBRASKA PANHANDLE

CITY           SKY/WX    TMP DP  RH WIND       PRES   REMARKS
SCOTTSBLUFF    SUNNY     75  57  53 CALM      30.09F
ALLIANCE       SUNNY     77  56  48 VRB5      30.08S
CHADRON        SUNNY     81  42  25 W9        30.02S
KIMBALL        SUNNY     75  45  33 CALM      30.16S
SIDNEY         SUNNY     76  57  51 VRB3      30.14S
$$

NEZ057>060-069>072-079>082-281700-
SOUTHWEST NEBRASKA

CITY           SKY/WX    TMP DP  RH WIND       PRES   REMARKS
NORTH PLATTE   PTSUNNY   78  63  59 S8        30.09S
IMPERIAL       CLOUDY    76  57  51 SW8       30.10S
LEXINGTON      MOSUNNY   78  64  61 S10       30.11S
MCCOOK         MOSUNNY   77  57  50 VRB6      30.11R
OGALLALA       SUNNY     77  60  55 W5        30.09R
$$

NEZ005>010-023>029-035>040-094-281700-
NORTH CENTRAL NEBRASKA

CITY           SKY/WX    TMP DP  RH WIND       PRES   REMARKS
AINSWORTH      SUNNY     81  66  61 S12       30.04S
BROKEN BOW     MOSUNNY   77  65  66 S16G25    30.09R
O`NEILL        SUNNY     83  65  54 S10G17    30.05S
ORD            MOSUNNY   80  64  58 S12       30.07S
THEDFORD       MOSUNNY   80  64  58 SW10G16   30.07S
$$

NEZ041-046>049-061>064-073>077-083>087-281700-
SOUTH CENTRAL NEBRASKA

CITY           SKY/WX    TMP DP  RH WIND       PRES   REMARKS
GRAND ISLAND   CLOUDY    80  65  59 S8        30.10S
AURORA         PTSUNNY   81  70  70 S7        30.10S
HASTINGS       MOSUNNY   82  67  60 S7        30.11R
HEBRON         MOSUNNY   81  71  73 SE6       30.10S
HOLDREGE       CLOUDY    74  65  73 S7        30.11R
KEARNEY *      CLOUDY    73  64  73 S7        30.09S
YORK           MOSUNNY   81  70  69 S9        30.10S
$$

NEZ011>018-030>034-042>045-281700-
NORTHEAST NEBRASKA

CITY           SKY/WX    TMP DP  RH WIND       PRES   REMARKS
NORFOLK        MOSUNNY   80  69  69 S9        30.07F
ALBION         CLOUDY    77  68  72 S10       30.09S
BLAIR          MOSUNNY   81  71  71 S7        30.11S
FREMONT        SUNNY     81  72  73 S9        30.10S
TEKAMAH        SUNNY     80  72  76 S10       30.09S
WAYNE          MOSUNNY   79  74  83 S9        30.09S
$$

NEZ050>053-065>068-078-088>093-281700-
SOUTHEAST NEBRASKA

CITY           SKY/WX    TMP DP  RH WIND       PRES   REMARKS
LINCOLN        MOSUNNY   81  71  71 E3        30.10S
OMAHA EPPLEY   PTSUNNY   80  71  74 S9        30.11R
BEATRICE       SUNNY     82  72  72 SE3       30.10S
FALLS CITY     SUNNY     84  74  71 SE5       30.11S HX  91
NEBRASKA CITY  MOSUNNY   80  72  76 SE5       30.12S
PLATTSMOUTH    PTSUNNY   80  73  78 SE3       30.12S
$$

NEZ044-045-051>053-067-281700-
OMAHA AREA

CITY           SKY/WX    TMP DP  RH WIND       PRES   REMARKS
OMAHA EPPLEY   PTSUNNY   80  71  74 S9        30.11R
BLAIR          MOSUNNY   81  71  71 S7        30.11S
FREMONT        SUNNY     81  72  73 S9        30.10S
MILLARD        MOSUNNY   81  73  76 SE6       30.10S
OFFUTT AFB     CLOUDY    80  74  81 SE9       30.11R
PLATTSMOUTH    PTSUNNY   80  73  78 SE3       30.12S
WAHOO          FAIR      80  72  76 SE5       30.10S
$$




USA.gov is the U.S. government's official web portal to all federal, state and local government web resources and services.